User: anonymous   Login
Location: Unspecified
(43.3830°N, 0.0000°E)
Time: 03:21:08
(UTC+00:00)
Language:

Transit 2A - Orbit

View from above orbital plane
View from above orbital plane
View from above satellite
View from above satellite

Ground track
Ground track

The orbit data is extracted from the following two-line orbital elements,

1    45U 60007A   19288.46886223 -.00000072  00000-0  86869-5 0  9991
2    45  66.6941 309.1120 0250465 135.9540 226.1819 14.33651743 87447
Epoch (UTC): 15 October 2019 11:15:09
Eccentricity: 0.0250465
inclination: 66.6941°
perigee height: 600 km
apogee height: 959 km
right ascension of ascending node: 309.1120°
argument of perigee: 135.9540°
revolutions per day: 14.33651743
mean anomaly at epoch: 226.1819°
orbit number at epoch: 8744

The dashed part of the orbit path shows where the satellite is in the earth's shadow,  

DLR